| time (UTC) | temp F | wind direction | speed knots | gust knots | rain 1hr in | rain 24hr in | rain mn in | humidity % | barometer mb |
| 20260505184415 | 63 | 73 | 1.7 | 2.6 | 0.00 | 0.00 | 0.00 | 87 | 1015.7 |
| 20260505183909 | 63 | 74 | 1.7 | 2.6 | 0.00 | 0.00 | 0.00 | 86 | 1015.7 |
| 20260505182408 | 64 | 88 | 1.7 | 2.6 | 0.00 | 0.00 | 0.00 | 86 | 1015.6 |
| 20260505181409 | 64 | 111 | 0.9 | 2.6 | 0.00 | 0.00 | 0.00 | 86 | 1015.6 |
| 20260505180909 | 64 | 115 | 1.7 | 2.6 | 0.00 | 0.00 | 0.00 | 86 | 1015.7 |
| 20260505180409 | 64 | 110 | 0.9 | 2.6 | 0.00 | 0.00 | 0.00 | 86 | 1015.7 |
| 20260505175408 | 64 | 85 | 0.9 | 2.6 | 0.00 | 0.00 | 0.00 | 85 | 1015.7 |
| 20260505174909 | 64 | 115 | 0.9 | 2.6 | 0.00 | 0.00 | 0.00 | 85 | 1015.7 |
| 20260505173909 | 64 | 108 | 0.9 | 2.6 | 0.00 | 0.00 | 0.00 | 85 | 1015.7 |
| 20260505173409 | 64 | 118 | 0.9 | 2.6 | 0.00 | 0.00 | 0.00 | 85 | 1015.7 |
| 20260505172410 | 64 | 137 | 0.9 | 2.6 | 0.00 | 0.00 | 0.00 | 84 | 1015.6 |
| 20260505171909 | 64 | 101 | 1.7 | 2.6 | 0.00 | 0.00 | 0.00 | 84 | 1015.7 |
| 20260505170909 | 65 | 89 | 0.9 | 2.6 | 0.00 | 0.00 | 0.00 | 84 | 1015.6 |
| 20260505165909 | 65 | 107 | 1.7 | 2.6 | 0.00 | 0.00 | 0.00 | 83 | 1015.6 |
| 20260505165408 | 65 | 152 | 1.7 | 2.6 | 0.00 | 0.00 | 0.00 | 83 | 1015.5 |
| 20260505164909 | 65 | 135 | 0.9 | 2.6 | 0.00 | 0.00 | 0.00 | 83 | 1015.6 |
| 20260505164417 | 65 | 132 | 0.9 | 2.6 | 0.00 | 0.00 | 0.00 | 83 | 1015.7 |
| 20260505163909 | 65 | 127 | 1.7 | 2.6 | 0.00 | 0.00 | 0.00 | 82 | 1015.8 |
| 20260505163409 | 65 | 107 | 1.7 | 2.6 | 0.00 | 0.00 | 0.00 | 82 | 1015.8 |
| 20260505162910 | 65 | 145 | 0.9 | 2.6 | 0.00 | 0.00 | 0.00 | 82 | 1015.8 |
| 20260505162409 | 65 | 125 | 1.7 | 2.6 | 0.00 | 0.00 | 0.00 | 82 | 1015.9 |
| 20260505161910 | 65 | 121 | 1.7 | 2.6 | 0.00 | 0.00 | 0.00 | 81 | 1015.9 |
| 20260505161409 | 65 | 128 | 1.7 | 2.6 | 0.00 | 0.00 | 0.00 | 81 | 1015.9 |
| 20260505160909 | 65 | 110 | 1.7 | 2.6 | 0.00 | 0.00 | 0.00 | 80 | 1015.9 |
| 20260505160409 | 65 | 126 | 1.7 | 2.6 | 0.00 | 0.00 | 0.00 | 80 | 1016.1 |
| 20260505151909 | 66 | 133 | 1.7 | 2.6 | 0.00 | 0.00 | 0.00 | 78 | 1016.1 |
| 20260505150909 | 67 | 137 | 0.9 | 2.6 | 0.00 | 0.00 | 0.00 | 77 | 1016.1 |
| 20260505140409 | 68 | 149 | 0.9 | 2.6 | 0.00 | 0.00 | 0.00 | 71 | 1016.4 |
| 20260505124910 | 66 | 93 | 1.7 | 4.3 | 0.00 | 0.00 | 0.00 | 77 | 1016.7 |
| 20260505124409 | 66 | 136 | 1.7 | 2.6 | 0.00 | 0.00 | 0.00 | 76 | 1016.7 |
| 20260505123909 | 67 | 117 | 1.7 | 2.6 | 0.00 | 0.00 | 0.00 | 76 | 1016.9 |
| 20260505123409 | 67 | 125 | 1.7 | 2.6 | 0.00 | 0.00 | 0.00 | 74 | 1017.0 |
| 20260505122909 | 67 | 247 | 0.9 | 2.6 | 0.00 | 0.00 | 0.00 | 73 | 1017.0 |
| 20260505122410 | 67 | 167 | 0.9 | 2.6 | 0.00 | 0.00 | 0.00 | 74 | 1017.0 |
| 20260505120909 | 67 | 141 | 1.7 | 2.6 | 0.00 | 0.00 | 0.00 | 74 | 1017.0 |
| 20260505115909 | 68 | 216 | 0.9 | 1.7 | 0.00 | 0.00 | 0.00 | 74 | 1017.2 |
| 20260505115409 | 67 | 134 | 1.7 | 2.6 | 0.00 | 0.00 | 0.00 | 74 | 1017.2 |
| 20260505114908 | 67 | 134 | 1.7 | 4.3 | 0.00 | 0.00 | 0.00 | 74 | 1017.1 |
| 20260505114409 | 67 | 146 | 2.6 | 2.6 | 0.00 | 0.00 | 0.00 | 73 | 1017.0 |
| 20260505113909 | 68 | 127 | 1.7 | 2.6 | 0.00 | 0.00 | 0.00 | 75 | 1016.9 |
| 20260505113409 | 68 | 112 | 1.7 | 2.6 | 0.00 | 0.00 | 0.00 | 75 | 1017.0 |
| 20260505112908 | 68 | 111 | 1.7 | 2.6 | 0.00 | 0.00 | 0.00 | 77 | 1017.0 |
| 20260505112408 | 68 | 108 | 1.7 | 2.6 | 0.00 | 0.00 | 0.00 | 76 | 1017.0 |
| 20260505111909 | 68 | 146 | 2.6 | 5.2 | 0.00 | 0.00 | 0.00 | 73 | 1016.9 |
| 20260505111409 | 69 | 140 | 0.9 | 2.6 | 0.00 | 0.00 | 0.00 | 74 | 1016.8 |
| 20260505110409 | 69 | 149 | 1.7 | 2.6 | 0.00 | 0.00 | 0.00 | 74 | 1016.9 |
| 20260505101408 | 69 | 123 | 0.9 | 2.6 | 0.00 | 0.00 | 0.00 | 71 | 1016.8 |
| 20260505095908 | 68 | 126 | 1.7 | 2.6 | 0.00 | 0.00 | 0.00 | 71 | 1017.0 |
| 20260505095410 | 68 | 131 | 1.7 | 5.2 | 0.00 | 0.00 | 0.00 | 70 | 1017.1 |
| 20260505094909 | 69 | 136 | 1.7 | 2.6 | 0.00 | 0.00 | 0.00 | 68 | 1017.1 |
| 20260505094411 | 69 | 118 | 1.7 | 2.6 | 0.00 | 0.00 | 0.00 | 69 | 1017.2 |
| 20260505093409 | 69 | 139 | 1.7 | 2.6 | 0.00 | 0.00 | 0.00 | 67 | 1017.1 |
| 20260505092909 | 69 | 114 | 1.7 | 2.6 | 0.00 | 0.00 | 0.00 | 67 | 1017.0 |
| 20260505092408 | 69 | 116 | 1.7 | 2.6 | 0.00 | 0.00 | 0.00 | 67 | 1017.0 |
| 20260505091909 | 69 | 123 | 1.7 | 2.6 | 0.00 | 0.00 | 0.00 | 67 | 1017.0 |
| 20260505090410 | 69 | 148 | 1.7 | 2.6 | 0.00 | 0.00 | 0.00 | 65 | 1016.9 |
| 20260505085908 | 69 | 145 | 2.6 | 4.3 | 0.00 | 0.00 | 0.00 | 64 | 1017.0 |
| 20260505085409 | 69 | 138 | 1.7 | 5.2 | 0.00 | 0.00 | 0.00 | 63 | 1017.1 |
| 20260505084909 | 69 | 150 | 2.6 | 5.2 | 0.00 | 0.00 | 0.00 | 61 | 1017.1 |
| 20260505084414 | 69 | 132 | 2.6 | 6.1 | 0.00 | 0.00 | 0.00 | 63 | 1017.1 |
| 20260505082908 | 68 | 148 | 1.7 | 5.2 | 0.00 | 0.00 | 0.00 | 65 | 1017.2 |
| 20260505082409 | 68 | 113 | 1.7 | 2.6 | 0.00 | 0.00 | 0.00 | 67 | 1017.2 |
| 20260505081909 | 68 | 131 | 1.7 | 2.6 | 0.00 | 0.00 | 0.00 | 66 | 1017.1 |
| 20260505081409 | 68 | 130 | 1.7 | 5.2 | 0.00 | 0.00 | 0.00 | 70 | 1017.2 |
| 20260505080909 | 68 | 122 | 1.7 | 2.6 | 0.00 | 0.00 | 0.00 | 71 | 1017.2 |
| 20260505075408 | 67 | 133 | 1.7 | 2.6 | 0.00 | 0.00 | 0.00 | 74 | 1017.4 |
| 20260505074908 | 67 | 110 | 1.7 | 2.6 | 0.00 | 0.00 | 0.00 | 74 | 1017.4 |
| 20260505074413 | 67 | 178 | 0.9 | 2.6 | 0.00 | 0.00 | 0.00 | 75 | 1017.3 |
| 20260505073408 | 66 | 132 | 1.7 | 2.6 | 0.00 | 0.00 | 0.00 | 75 | 1017.4 |
| 20260505072909 | 66 | 125 | 1.7 | 2.6 | 0.00 | 0.00 | 0.00 | 76 | 1017.4 |
| 20260505071908 | 66 | 119 | 1.7 | 2.6 | 0.00 | 0.00 | 0.00 | 77 | 1017.5 |
| 20260505071409 | 66 | 121 | 2.6 | 4.3 | 0.00 | 0.00 | 0.00 | 76 | 1017.6 |
| 20260505070913 | 66 | 155 | 1.7 | 4.3 | 0.00 | 0.00 | 0.00 | 78 | 1017.5 |
| 20260505070408 | 66 | 147 | 1.7 | 2.6 | 0.00 | 0.00 | 0.00 | 78 | 1017.6 |
| 20260505065907 | 65 | 129 | 0.9 | 2.6 | 0.00 | 0.00 | 0.00 | 79 | 1017.7 |
| 20260505065408 | 66 | 99 | 0.9 | 2.6 | 0.00 | 0.00 | 0.00 | 79 | 1017.8 |
| 20260505064908 | 65 | 97 | 1.7 | 4.3 | 0.00 | 0.00 | 0.00 | 79 | 1017.9 |
| 20260505064411 | 65 | 96 | 1.7 | 2.6 | 0.00 | 0.00 | 0.00 | 80 | 1017.9 |
| 20260505063908 | 64 | 74 | 0.9 | 2.6 | 0.00 | 0.00 | 0.00 | 81 | 1017.7 |
| 20260505063409 | 64 | 128 | 0.9 | 1.7 | 0.00 | 0.00 | 0.00 | 81 | 1017.7 |
| 20260505062908 | 63 | 113 | 0.9 | 2.6 | 0.00 | 0.00 | 0.00 | 81 | 1017.6 |
| 20260505062408 | 63 | 82 | 1.7 | 2.6 | 0.00 | 0.00 | 0.00 | 81 | 1017.5 |
| 20260505061908 | 62 | 64 | 1.7 | 4.3 | 0.00 | 0.00 | 0.00 | 82 | 1017.3 |
| 20260505061408 | 62 | 65 | 1.7 | 2.6 | 0.00 | 0.00 | 0.00 | 81 | 1017.3 |
| 20260505060908 | 62 | 88 | 1.7 | 4.3 | 0.00 | 0.00 | 0.00 | 81 | 1017.1 |
| 20260505060408 | 62 | 80 | 1.7 | 2.6 | 0.00 | 0.00 | 0.00 | 81 | 1017.1 |
| 20260505054910 | 62 | 339 | 1.7 | 2.6 | 0.00 | 0.00 | 0.00 | 79 | 1017.3 |
| 20260505053908 | 61 | 64 | 1.7 | 2.6 | 0.00 | 0.00 | 0.00 | 79 | 1017.2 |
| 20260505053409 | 60 | 48 | 1.7 | 2.6 | 0.00 | 0.00 | 0.00 | 77 | 1017.2 |
| 20260505052909 | 60 | 56 | 1.7 | 2.6 | 0.00 | 0.00 | 0.00 | 75 | 1017.2 |
| 20260505052409 | 61 | 66 | 1.7 | 2.6 | 0.00 | 0.00 | 0.00 | 74 | 1017.2 |
| 20260505051908 | 61 | 73 | 1.7 | 5.2 | 0.00 | 0.00 | 0.00 | 74 | 1017.2 |
| 20260505051408 | 61 | 68 | 1.7 | 2.6 | 0.00 | 0.00 | 0.00 | 73 | 1017.2 |
| 20260505050909 | 61 | 59 | 1.7 | 4.3 | 0.00 | 0.00 | 0.00 | 73 | 1017.1 |
| 20260505050408 | 60 | 50 | 0.9 | 2.6 | 0.00 | 0.00 | 0.00 | 74 | 1017.1 |
| 20260505041407 | 59 | 56 | 1.7 | 2.6 | 0.00 | 0.00 | 0.00 | 81 | 1017.0 |
| 20260505040410 | 59 | 33 | 0.9 | 2.6 | 0.00 | 0.00 | 0.00 | 81 | 1016.9 |
| 20260505035909 | 59 | 45 | 0.9 | 2.6 | 0.00 | 0.00 | 0.00 | 80 | 1016.9 |
| 20260505034908 | 59 | 62 | 0.9 | 2.6 | 0.00 | 0.00 | 0.00 | 79 | 1016.9 |
| 20260505034408 | 59 | 38 | 0.9 | 2.6 | 0.00 | 0.00 | 0.00 | 79 | 1016.9 |
| 20260505033908 | 59 | 36 | 0.9 | 2.6 | 0.00 | 0.00 | 0.00 | 79 | 1017.0 |
| 20260505033408 | 60 | 27 | 0.9 | 1.7 | 0.00 | 0.00 | 0.00 | 78 | 1017.0 |
| 20260505032408 | 60 | 73 | 0.0 | 0.9 | 0.00 | 0.00 | 0.00 | 78 | 1017.1 |
| 20260505031908 | 60 | 73 | 0.0 | 0.9 | 0.00 | 0.00 | 0.00 | 78 | 1017.0 |
| 20260505030908 | 60 | 71 | 0.0 | 0.9 | 0.00 | 0.00 | 0.00 | 78 | 1017.1 |
| 20260505025908 | 60 | 80 | 0.9 | 2.6 | 0.00 | 0.00 | 0.00 | 79 | 1017.1 |
| 20260505025408 | 60 | 288 | 0.9 | 1.7 | 0.00 | 0.00 | 0.00 | 79 | 1017.2 |
| 20260505024908 | 59 | 285 | 0.9 | 2.6 | 0.00 | 0.00 | 0.00 | 79 | 1017.2 |
| 20260505024409 | 59 | 277 | 1.7 | 2.6 | 0.00 | 0.00 | 0.00 | 80 | 1017.2 |
| 20260505023907 | 59 | 313 | 1.7 | 2.6 | 0.00 | 0.00 | 0.00 | 81 | 1017.2 |
| 20260505023409 | 58 | 348 | 0.9 | 1.7 | 0.00 | 0.00 | 0.00 | 82 | 1017.2 |
| 20260505022408 | 58 | 88 | 0.0 | 0.0 | 0.00 | 0.00 | 0.00 | 81 | 1017.1 |
| 20260505021908 | 58 | 88 | 0.0 | 0.9 | 0.00 | 0.00 | 0.00 | 81 | 1017.1 |
| 20260505021408 | 58 | 90 | 0.9 | 1.7 | 0.00 | 0.00 | 0.00 | 81 | 1017.1 |
| 20260505020908 | 58 | 101 | 0.0 | 1.7 | 0.00 | 0.00 | 0.00 | 80 | 1017.0 |
| 20260505020408 | 58 | 103 | 0.0 | 1.7 | 0.00 | 0.00 | 0.00 | 79 | 1017.0 |
| 20260505015908 | 58 | 109 | 0.0 | 0.9 | 0.00 | 0.00 | 0.00 | 79 | 1017.0 |
| 20260505015409 | 59 | 112 | 0.9 | 2.6 | 0.00 | 0.00 | 0.00 | 79 | 1017.0 |
| 20260505014909 | 59 | 102 | 0.9 | 2.6 | 0.00 | 0.00 | 0.00 | 78 | 1017.0 |
| 20260505014409 | 59 | 101 | 0.9 | 2.6 | 0.00 | 0.00 | 0.00 | 77 | 1017.0 |
| 20260505013407 | 59 | 85 | 0.0 | 1.7 | 0.00 | 0.00 | 0.00 | 76 | 1016.9 |
| 20260505012907 | 59 | 101 | 0.9 | 2.6 | 0.00 | 0.00 | 0.00 | 76 | 1016.9 |
| 20260505011908 | 60 | 96 | 1.7 | 2.6 | 0.00 | 0.00 | 0.00 | 76 | 1017.0 |
| 20260505011409 | 60 | 91 | 1.7 | 2.6 | 0.00 | 0.00 | 0.00 | 76 | 1017.0 |
| 20260505010908 | 60 | 99 | 1.7 | 2.6 | 0.00 | 0.00 | 0.00 | 75 | 1016.9 |
| 20260505010409 | 60 | 81 | 0.9 | 1.7 | 0.00 | 0.00 | 0.00 | 74 | 1017.0 |
| 20260505005409 | 59 | 67 | 0.9 | 2.6 | 0.00 | 0.00 | 0.00 | 73 | 1017.1 |
| 20260505004909 | 60 | 75 | 0.9 | 2.6 | 0.00 | 0.00 | 0.00 | 71 | 1017.0 |
| 20260505004409 | 60 | 72 | 0.9 | 2.6 | 0.00 | 0.00 | 0.00 | 69 | 1017.0 |
| 20260505003909 | 61 | 85 | 1.7 | 2.6 | 0.00 | 0.00 | 0.00 | 69 | 1017.0 |
| 20260505003408 | 61 | 65 | 1.7 | 5.2 | 0.00 | 0.00 | 0.00 | 67 | 1017.0 |
| 20260505002909 | 61 | 69 | 1.7 | 2.6 | 0.00 | 0.00 | 0.00 | 65 | 1017.0 |
| 20260505002408 | 61 | 80 | 0.9 | 2.6 | 0.00 | 0.00 | 0.00 | 64 | 1016.9 |
| 20260505001908 | 61 | 57 | 1.7 | 2.6 | 0.00 | 0.00 | 0.00 | 64 | 1017.0 |
| 20260505001408 | 61 | 42 | 1.7 | 2.6 | 0.00 | 0.00 | 0.00 | 63 | 1017.0 |
| 20260505000409 | 62 | 78 | 1.7 | 4.3 | 0.00 | 0.00 | 0.00 | 63 | 1017.1 |
| 20260504235910 | 62 | 59 | 1.7 | 4.3 | 0.00 | 0.00 | 0.00 | 62 | 1017.1 |
| 20260504235409 | 62 | 48 | 1.7 | 2.6 | 0.00 | 0.00 | 0.00 | 62 | 1017.1 |
| 20260504234909 | 62 | 41 | 1.7 | 2.6 | 0.00 | 0.00 | 0.00 | 62 | 1017.3 |
| 20260504233908 | 62 | 51 | 1.7 | 4.3 | 0.00 | 0.00 | 0.00 | 63 | 1017.4 |
| 20260504233407 | 62 | 52 | 0.9 | 2.6 | 0.00 | 0.00 | 0.00 | 63 | 1017.4 |
| 20260504232908 | 62 | 50 | 1.7 | 4.3 | 0.00 | 0.00 | 0.00 | 63 | 1017.5 |
| 20260504232408 | 61 | 69 | 1.7 | 2.6 | 0.00 | 0.00 | 0.00 | 65 | 1017.6 |
| 20260504231407 | 61 | 49 | 1.7 | 2.6 | 0.00 | 0.00 | 0.00 | 69 | 1017.6 |
| 20260504230908 | 61 | 54 | 1.7 | 2.6 | 0.00 | 0.00 | 0.00 | 69 | 1017.6 |
| 20260504225907 | 61 | 61 | 1.7 | 4.3 | 0.00 | 0.00 | 0.00 | 68 | 1017.7 |
| 20260504225408 | 62 | 46 | 1.7 | 4.3 | 0.00 | 0.00 | 0.00 | 68 | 1017.8 |
| 20260504224908 | 62 | 50 | 1.7 | 2.6 | 0.00 | 0.00 | 0.00 | 67 | 1017.8 |
| 20260504224409 | 61 | 43 | 1.7 | 2.6 | 0.00 | 0.00 | 0.00 | 68 | 1017.9 |
| 20260504223907 | 61 | 47 | 1.7 | 2.6 | 0.00 | 0.00 | 0.00 | 67 | 1018.0 |
| 20260504223412 | 61 | 59 | 1.7 | 2.6 | 0.00 | 0.00 | 0.00 | 68 | 1018.0 |
| 20260504221907 | 61 | 56 | 1.7 | 2.6 | 0.00 | 0.00 | 0.00 | 69 | 1018.0 |
| 20260504221407 | 61 | 46 | 1.7 | 2.6 | 0.00 | 0.00 | 0.00 | 70 | 1018.0 |
| 20260504220908 | 61 | 58 | 1.7 | 2.6 | 0.00 | 0.00 | 0.00 | 70 | 1018.1 |
| 20260504220408 | 61 | 50 | 0.9 | 2.6 | 0.00 | 0.00 | 0.00 | 70 | 1018.1 |
| 20260504215907 | 61 | 67 | 1.7 | 2.6 | 0.00 | 0.00 | 0.00 | 70 | 1018.1 |
| 20260504215407 | 61 | 60 | 0.9 | 2.6 | 0.00 | 0.00 | 0.00 | 71 | 1018.1 |
| 20260504214909 | 61 | 52 | 0.9 | 2.6 | 0.00 | 0.00 | 0.00 | 71 | 1018.1 |
| 20260504214410 | 61 | 56 | 0.0 | 1.7 | 0.00 | 0.00 | 0.00 | 71 | 1018.1 |
| 20260504213908 | 61 | 56 | 1.7 | 2.6 | 0.00 | 0.00 | 0.00 | 71 | 1018.2 |
| 20260504213408 | 62 | 81 | 1.7 | 2.6 | 0.00 | 0.00 | 0.00 | 70 | 1018.1 |
| 20260504212908 | 62 | 63 | 0.9 | 2.6 | 0.00 | 0.00 | 0.00 | 72 | 1018.1 |
| 20260504212409 | 63 | 67 | 1.7 | 2.6 | 0.00 | 0.00 | 0.00 | 73 | 1018.1 |
| 20260504211909 | 64 | 71 | 0.9 | 2.6 | 0.00 | 0.00 | 0.00 | 74 | 1018.0 |
| 20260504211408 | 64 | 67 | 0.9 | 2.6 | 0.00 | 0.00 | 0.00 | 74 | 1018.0 |
| 20260504210908 | 65 | 64 | 0.9 | 2.6 | 0.00 | 0.00 | 0.00 | 74 | 1018.0 |
| 20260504210408 | 65 | 104 | 0.0 | 0.9 | 0.00 | 0.00 | 0.00 | 74 | 1018.1 |
| 20260504205908 | 65 | 105 | 0.0 | 0.9 | 0.00 | 0.00 | 0.00 | 74 | 1018.1 |
| 20260504205408 | 65 | 107 | 0.0 | 0.9 | 0.00 | 0.00 | 0.00 | 73 | 1018.1 |
| 20260504204908 | 65 | 109 | 0.0 | 0.0 | 0.00 | 0.00 | 0.00 | 74 | 1018.1 |
| 20260504203409 | 66 | 119 | 0.0 | 0.0 | 0.00 | 0.00 | 0.00 | 71 | 1018.2 |
| 20260504202908 | 66 | 120 | 0.0 | 0.0 | 0.00 | 0.00 | 0.00 | 69 | 1018.2 |
| 20260504202408 | 66 | 120 | 0.0 | 0.0 | 0.00 | 0.00 | 0.00 | 68 | 1018.2 |
| 20260504201908 | 66 | 120 | 0.0 | 0.0 | 0.00 | 0.00 | 0.00 | 68 | 1018.1 |
| 20260504201409 | 66 | 207 | 0.0 | 0.0 | 0.00 | 0.00 | 0.00 | 66 | 1018.1 |
| 20260504200908 | 65 | 207 | 0.0 | 0.0 | 0.00 | 0.00 | 0.00 | 66 | 1018.1 |
| 20260504200409 | 66 | 207 | 0.0 | 0.0 | 0.00 | 0.00 | 0.00 | 69 | 1018.1 |
| 20260504195909 | 66 | 207 | 0.0 | 0.0 | 0.00 | 0.00 | 0.00 | 68 | 1018.1 |
| 20260504195409 | 66 | 207 | 0.0 | 0.0 | 0.00 | 0.00 | 0.00 | 69 | 1018.1 |
| 20260504194908 | 66 | 207 | 0.0 | 0.0 | 0.00 | 0.00 | 0.00 | 69 | 1018.0 |
| 20260504194410 | 66 | 207 | 0.0 | 0.0 | 0.00 | 0.00 | 0.00 | 68 | 1017.9 |
| 20260504193908 | 66 | 207 | 0.0 | 0.0 | 0.00 | 0.00 | 0.00 | 69 | 1017.9 |
| 20260504193408 | 65 | 207 | 0.0 | 0.0 | 0.00 | 0.00 | 0.00 | 69 | 1017.9 |
| 20260504192908 | 65 | 207 | 0.0 | 0.0 | 0.00 | 0.00 | 0.00 | 68 | 1017.9 |
| 20260504192407 | 65 | 205 | 0.0 | 0.0 | 0.00 | 0.00 | 0.00 | 68 | 1017.9 |
| 20260504191408 | 65 | 242 | 0.0 | 0.0 | 0.00 | 0.00 | 0.00 | 71 | 1017.8 |
| 20260504190908 | 65 | 263 | 0.0 | 0.0 | 0.00 | 0.00 | 0.00 | 72 | 1017.8 |
| 20260504190408 | 65 | 268 | 0.0 | 0.0 | 0.00 | 0.00 | 0.00 | 72 | 1017.8 |
| 20260504185908 | 65 | 268 | 0.0 | 0.0 | 0.00 | 0.00 | 0.00 | 74 | 1017.7 |
| 20260504185407 | 65 | 268 | 0.9 | 1.7 | 0.00 | 0.00 | 0.00 | 74 | 1017.8 |
| 20260504184907 | 65 | 270 | 0.9 | 2.6 | 0.00 | 0.00 | 0.00 | 75 | 1017.7 |